Location: Blackrock Ranger Station
(36.0936°N, 118.2611°W)
Time: 07:39:44
(UTC-07:00)

AO-7 - Pass Details

Date: 22 February 2026
Orbit: 1440 x 1458 km, 102.0° (Epoch: 15 March)

Event Time Altitude Azimuth Distance (km) Brightness Sun altitude
Rises 18:21:49 0° 187° (S) 4,512 ? -8.9°
Reaches altitude 10° 18:24:52 10° 196° (SSW) 3,538 ? -9.5°
Maximum altitude 18:32:18 37° 260° (W) 2,099 ? -11.0°
Drops below altitude 10° 18:39:49 10° 326° (NW) 3,563 ? -12.5°
Sets 18:42:55 0° 334° (NNW) 4,548 ? -13.1°
